Nuiqsut, AK

7:38 AM AKDT on September 23, 2017 (GMT -0800)
Nuiqsut

Weather History for PAQT - April, 2014

Change the Weather History Date:

Wednesday, April 23, 2014

  Actual Average (PAKU) Record (PAKU)
Temperature  
Mean Temperature 8 °F -  
Max Temperature 17 °F 11 °F 33 °F (2015)
Min Temperature 1 °F 1 °F - (2007)
Degree Days  
Heating Degree Days 56    
Moisture  
Dew Point 8 °F    
Average Humidity 95    
Maximum Humidity 100    
Minimum Humidity 84    
Precipitation  
Precipitation 0.00 in - - ()
Sea Level Pressure  
Sea Level Pressure 29.95 in    
Wind  
Wind Speed 6 mph (WNW)    
Max Wind Speed 8 mph    
Max Gust Speed -    
Visibility 7 miles    
Events Fog    
Averages and records for this station are not official NWS values.
T = Trace of Precipitation, MM = Missing Value Source: NWS Daily Summary

Daily Weather History Graph

Daily Weather History Graph

Search for Another Location

Airport or City:

Trip Planner

Search our weather history database for the weather conditions in past years. The results will help you decide how hot, cold, wet, or windy it might be!

Date:

Astronomy

Apr. 23, 2014 Rise Set
Actual Time 5:15 AM AKDT 10:53 PM AKDT
Civil Twilight 3:24 AM AKDT 12:51 AM AKDT
Nautical Twilight Sun does not set Sun does not set
Astronomical Twilight Sun does not set Sun does not set
Moon 5:21 AM AKDT 1:54 PM AKDT
Length of Visible Light 21h 27m
Length of Day
17h 37m
Waning Crescent, 33% of the Moon is Illuminated
Apr 23
Waning Crescent
Apr 28
New
May 6
First Quarter
May 14
Full
May 21
Last Quarter

Hourly Weather History & Observations

Time (AKDT) Temp. Windchill Dew Point Humidity Pressure Visibility Wind Dir Wind Speed Gust Speed Precip Events Conditions
12:53 AM 3.9 °F -8.2 °F 3.0 °F 96% 29.97 in 6.0 mi SSW 6.9 mph - N/A   Mostly Cloudy
1:53 AM 7.0 °F -3.3 °F 6.1 °F 96% 29.98 in 10.0 mi SW 5.8 mph - 0.00 in   Overcast
2:53 AM 8.1 °F -4.3 °F 7.0 °F 95% 29.98 in 10.0 mi WSW 8.1 mph - N/A   Overcast
3:53 AM 6.1 °F -5.6 °F 5.0 °F 95% 29.97 in 10.0 mi SW 6.9 mph - N/A   Mostly Cloudy
4:53 AM 3.0 °F -8.0 °F 1.9 °F 95% 29.97 in 10.0 mi SW 5.8 mph - 0.00 in   Clear
5:53 AM 1.0 °F -6.7 °F -2.0 °F 87% 29.97 in 10.0 mi SSW 3.5 mph - 0.00 in   Clear
6:53 AM 1.0 °F -10.3 °F -0.0 °F 95% 29.97 in 10.0 mi SW 5.8 mph - 0.00 in   Clear
7:53 AM 3.0 °F -4.4 °F 3.0 °F 100% 29.97 in 10.0 mi SSW 3.5 mph - 0.00 in   Clear
8:53 AM 7.0 °F -1.7 °F 6.1 °F 96% 29.97 in 10.0 mi SSW 4.6 mph - 0.00 in   Clear
9:21 AM 8.1 °F -2.0 °F 6.1 °F 92% 29.96 in 10.0 mi SW 5.8 mph - 0.00 in   Scattered Clouds
9:30 AM 8.1 °F -2.0 °F 7.0 °F 95% 29.96 in 10.0 mi WSW 5.8 mph - 0.00 in   Mostly Cloudy
9:53 AM 9.0 °F -2.2 °F 7.0 °F 92% 29.96 in 10.0 mi WSW 6.9 mph - 0.00 in   Overcast
10:06 AM 8.1 °F -3.2 °F 7.0 °F 95% 29.96 in 10.0 mi WSW 6.9 mph - 0.00 in   Overcast
10:53 AM 9.0 °F -2.2 °F 8.1 °F 96% 29.96 in 10.0 mi WSW 6.9 mph - 0.00 in   Overcast
11:11 AM 10.0 °F -1.9 °F 9.0 °F 95% 29.95 in 10.0 mi WSW 8.1 mph - 0.00 in   Scattered Clouds
11:37 AM 10.9 °F 1.4 °F 10.9 °F 100% 29.96 in 2.0 mi West 5.8 mph - 0.00 in   Mostly Cloudy
11:51 AM 12.2 °F 1.7 °F 10.4 °F 92% 29.96 in 7.0 mi West 6.9 mph - N/A   Mostly Cloudy
11:53 AM 12.0 °F 2.7 °F 10.0 °F 92% 29.97 in 8.0 mi West 5.8 mph - 0.00 in   Mostly Cloudy
12:06 PM 12.0 °F 1.5 °F 10.0 °F 92% 29.96 in 10.0 mi West 6.9 mph - 0.00 in   Scattered Clouds
12:53 PM 12.9 °F 3.8 °F 10.9 °F 92% 29.96 in 10.0 mi West 5.8 mph - 0.00 in   Clear
1:53 PM 12.9 °F 3.8 °F 12.0 °F 96% 29.96 in 10.0 mi WNW 5.8 mph - 0.00 in   Clear
2:53 PM 14.0 °F 8.2 °F 12.9 °F 95% 29.96 in 10.0 mi WNW 3.5 mph - 0.00 in   Clear
3:13 PM 14.0 °F 6.5 °F 12.9 °F 95% 29.95 in 10.0 mi WNW 4.6 mph - 0.00 in   Scattered Clouds
3:53 PM 14.0 °F 6.5 °F 12.9 °F 95% 29.95 in 10.0 mi NW 4.6 mph - 0.00 in   Clear
4:53 PM 16.0 °F 8.8 °F 12.9 °F 88% 29.94 in 10.0 mi North 4.6 mph - 0.00 in   Clear
5:53 PM 16.0 °F 10.4 °F 12.0 °F 84% 29.94 in 10.0 mi North 3.5 mph - 0.00 in   Clear
6:53 PM 16.0 °F 10.4 °F 12.0 °F 84% 29.93 in 10.0 mi North 3.5 mph - 0.00 in   Clear
7:53 PM 14.0 °F 8.2 °F 12.0 °F 92% 29.93 in 10.0 mi NNE 3.5 mph - 0.00 in   Clear
8:08 PM 12.0 °F 2.7 °F 12.0 °F 100% 29.92 in 2.5 mi North 5.8 mph - 0.00 in   Scattered Clouds
8:11 PM 12.0 °F 4.1 °F 12.0 °F 100% 29.92 in 1.0 mi North 4.6 mph - 0.00 in   Mist
8:18 PM 12.0 °F 4.1 °F 12.0 °F 100% 29.92 in 0.5 mi North 4.6 mph - 0.00 in Fog Light Freezing Fog
8:53 PM 10.9 °F 2.9 °F 10.9 °F 100% 29.92 in 1.5 mi NNW 4.6 mph - 0.00 in   Mostly Cloudy
8:55 PM 10.9 °F 2.9 °F 10.9 °F 100% 29.92 in 4.0 mi NNW 4.6 mph - 0.00 in   Mostly Cloudy
9:10 PM 10.9 °F 1.4 °F 10.0 °F 96% 29.92 in 1.8 mi NNW 5.8 mph - 0.00 in   Mostly Cloudy
9:25 PM 10.0 °F 1.8 °F 9.0 °F 95% 29.92 in 0.5 mi North 4.6 mph - 0.00 in Fog Light Freezing Fog
9:53 PM 9.0 °F 2.4 °F 8.1 °F 96% 29.92 in 0.2 mi NW 3.5 mph - 0.00 in Fog Light Freezing Fog
10:40 PM 7.0 °F -3.3 °F 7.0 °F 100% 29.91 in 0.2 mi NW 5.8 mph - N/A Fog Light Freezing Fog
10:53 PM 7.0 °F -1.7 °F 7.0 °F 100% 29.92 in 0.2 mi NW 4.6 mph - N/A Fog Light Freezing Fog
11:53 PM 1.9 °F - 1.9 °F 100% 29.92 in 0.2 mi Calm Calm - 0.00 in Fog Light Freezing Fog